Regional Weather Roundup
Issued by NWS

Home | Current Version | Previous Version | Graphics & Text | Print | Product List | Glossary On
Versions: 1 2 3 4 5 6 7 8 9 10 11 12 13 14 15 16 17 18 19 20 21 22 23 24 25 26 27 28 29 30 31 32 33 34 35 36 37 38 39 40 41 42 43 44 45 46 47 48 49 50
000
ASUS43 KMKX 172011
RWRWI

WISCONSIN REGIONAL WEATHER ROUNDUP
NATIONAL WEATHER SERVICE MILWAUKEE/SULLIVAN WI
300 PM CDT WED SEP 17 2014

NOTE: "FAIR" INDICATES FEW OR NO CLOUDS BELOW 12,000 FEET WITH NO
SIGNIFICANT WEATHER AND/OR OBSTRUCTIONS TO VISIBILITY.

WIZ001-002-006>008-014>016-023>028-172100-
NORTHWEST WISCONSIN

CITY           SKY/WX    TMP DP  RH WIND       PRES   REMARKS
SUPERIOR ARPT  CLOUDY    51  47  84 E15G24    30.01R
ASHLAND        CLOUDY    52  46  80 NE16      30.03R
HAYWARD        MOSUNNY   70  45  40 N5        29.95S
SIREN          SUNNY     71  47  42 CALM      29.95S
RICE LAKE      PTSUNNY   71  49  45 N8        29.97S
LADYSMITH      PTSUNNY   68  50  52 NW6       29.97S
EAU CLAIRE     PTSUNNY   71  50  47 S5        29.95S
MENOMONIE      CLEAR     70  51  50 S3        29.95S
NEW RICHMOND   MOSUNNY   72  49  44 NW3       29.95S
OSCEOLA        SUNNY     72  51  48 CALM      29.97F
$$

WIZ003>005-009-010-017-018-172100-
NORTH CENTRAL WISCONSIN

CITY           SKY/WX    TMP DP  RH WIND       PRES   REMARKS
WOODRUFF       MOSUNNY   69  47  44 W7        29.94F
RHINELANDER    SUNNY     68  44  42 NW9       29.96S
EAGLE RIVER    MOSUNNY   68  42  38 W10       29.93F
LAND O LAKES   MOSUNNY   65  49  55 N10       29.95S
PHILLIPS       PTSUNNY   67  48  51 CALM      29.95S
TOMAHAWK       PTSUNNY   69  47  45 W9        29.95F
MEDFORD        MOSUNNY   65  49  55 NW5       29.96S
MERRILL        CLOUDY    68  49  49 W10       29.95S
$$

WIZ029-030-035-036-043>047-172100-
CENTRAL WISCONSIN

CITY           SKY/WX    TMP DP  RH WIND       PRES   REMARKS
WAUSAU         CLOUDY    67  48  50 NW10      29.94S
MOSINEE        PTSUNNY   70  52  52 W12G18    29.97S
MARSHFIELD     MOSUNNY   70  51  51 W6        29.96F
STEVENS POINT  MOSUNNY   67  48  50 W10       29.97S
WAUPACA        MOSUNNY   73  48  42 W9        29.96S
WAUTOMA        MOSUNNY   71  48  43 VRB3      29.97F
WISC RAPIDS    SUNNY     70  47  43 W3        29.98S
CAMP DOUGLAS   MOSUNNY   70  52  52 VRB2      29.97F
$$

WIZ011>013-019>022-031-037>040-048>050-172100-
NORTHEAST WISCONSIN

CITY           SKY/WX    TMP DP  RH WIND       PRES   REMARKS
ANTIGO         MOSUNNY   67  48  50 NW10G17   29.95S
STURGEON BAY   MOSUNNY   66  48  52 W7        29.94F
GREEN BAY      PTSUNNY   68  49  50 SW10      29.95S
MANITOWOC      PTSUNNY   68  48  48 W10       29.96F
APPLETON       PTSUNNY   66  45  45 W10       29.96F
CLINTONVILLE   MOSUNNY   70  46  43 W7        29.95R
OSHKOSH        MOSUNNY   69  50  50 SW8       29.96F
$$

WIZ032>034-041-042-053>061-172100-
SOUTHWEST WISCONSIN

CITY           SKY/WX    TMP DP  RH WIND       PRES   REMARKS
LA CROSSE      PTSUNNY   71  52  50 S10       29.95F
SPARTA         MOSUNNY   70  48  46 SW3       29.97S
VIROQUA        MOCLDY    68  49  49 SW5       29.98F
BOSCOBEL       PTSUNNY   71  49  45 VRB6      29.97F
PRAIRIE DU CHI SUNNY     69  47  45 CALM      29.97F
PLATTEVILLE    FAIR      68  49  50 CALM      29.99F
$$

WIZ056-057-062-063-064-067-068-172100-
SOUTH CENTRAL WISCONSIN

CITY           SKY/WX    TMP DP  RH WIND       PRES   REMARKS
BARABOO/DELLS  PTSUNNY   68  46  45 SW6       29.97F
LONE ROCK      MOSUNNY   72  48  42 W8        29.97F
WATERTOWN      MOSUNNY   69  49  48 SW6       29.98S
MADISON        MOSUNNY   68  47  46 VRB6      29.98F
MIDDLETON      FAIR      69  44  39 SW5       29.98F
MONROE         MOSUNNY   68  50  52 S8        29.98F
JANESVILLE     MOSUNNY   70  46  43 SW6       29.98F
$$

WIZ051-052-058>065-066-070>072-172100-
SOUTHEAST WISCONSIN

CITY           SKY/WX    TMP DP  RH WIND       PRES   REMARKS
MILWAUKEE      PTSUNNY   69  44  40 W8        29.98F
WAUKESHA       MOSUNNY   66  45  45 W6        29.99F
MILWAUKEE/TIMM MOSUNNY   68  43  40 SW6       29.99F
RACINE         MOSUNNY   67  48  50 S10       30.00F
BURLINGTON     SUNNY     68  43  40 CALM      29.98F
KENOSHA        MOSUNNY   68  46  45 VRB3      29.99F
FOND DU LAC    CLOUDY    68  48  48 SW7       29.97F
SHEBOYGAN      MOSUNNY   69  46  43 W12       29.97F
WEST BEND      CLOUDY    66  45  45 W8        29.98S
JUNEAU         PTSUNNY   67  47  49 W6        29.99F
$$

LSZ147-162-172100-
LAKE SUPERIOR

STATION/POSITION TIME  TEMP    WIND        PRES    WAVE
                       AIR SEA DIR/SP/G            HT/PER
                 (UTC) (F)     (DEG/KT/KT) (MB)    (FT/S)
W MID LAKE BUOY  1950   44 46   60/ 17/ 19 1017.8R   6/ 6
DEVILS ISLAND    2000   45      70/ 20/ 23 1018.2R
PORT WING        1940   52      40/ 22/ 25 1016.6R
SAXON HARBOR     1900   51      50/ 18/ 20 1016.3R
$$

LMZ867-665-643>646-172100-
LAKE MICHIGAN

STATION/POSITION TIME  TEMP    WIND        PRES    WAVE
                       AIR SEA DIR/SP/G            HT/PER
                 (UTC) (F)     (DEG/KT/KT) (MB)    (FT/S)
N MID LAKE BUOY  1950   58 59  210/ 14/ 16 1013.6S   2/ 3
NORTHPORT PIER   1900   68     260/  3/  9 1013.2F
SISTER BAY       1912          250/  8/  8   N/A
KEWAUNEE LAKESHO 1900   57     160/  7/ 14 1013.4F
SHEBOYGAN LAKESH 2000   59 48  150/ 13/ 14 1015.3F
PORT WASHINGTON  1940   64     200/  5/  8 1015.9S
ATWATER BUOY     2000   61     150/ 10/ 12 1016.2F
MILWAUKEE LAKESH 1900   60     130/ 12/ 14   N/A
S MID LAKE BUOY  1950   62 65  220/  4/  4 1016.4F   1/ 4
KENOSHA   LAKESH 2000   64     150/ 11/ 12 1015.2F
$$

TC  - TEMPERATURE IN CELSIUS
VSB - VISIBILITY IN STATUTE MILES
WCI - WIND CHILL INDEX
HX  - HEAT INDEX



USA.gov is the U.S. government's official web portal to all federal, state and local government web resources and services.